SCP
0 0 0 0 0 0 0 0 0 0 0 0 0 0 0 0 0 0 0 0 0 0 0 0 0 0 0 0 0 0 0 0 0 0 0 0 0 0 0 0 0 0 0
0 0 0 0 0 0 0 0 0 0 0 0 0 0 0 0 0 0 0 0 0 0 0 0 0 0 0 0 0 0 0 0 0 0 0 0 0 0 0 0 0 0 0
0 0 0 0 0 0 0 0 0 0 0 0 0 0 0 0 0 0 0 0 0 0 0 0 0 0 0 0 0 0 0 0 0 0 0 0 0 0 0 0 0 0 0
0 0 0 0 0 0 0 0 0 0 0 0 0 0 0 0 0 0 0 0 0 0 0 0 0 0 0 0 0 0 0 0 0 0 0 0 0 0 0 0 0 0 0
0 0 0 0 0 0 0 0 0 0 0 0 0 0 0 0 0 0 0 0 0 0 0 0 0 0 0 0 0 0 0 0 0 0 0 0 0 0 0 0 0 0 0
0 0 0 0 0 0 0 0 0 0 0 0 0 0 0 0 0 0 0 0 0 0 0 0 0 0 0 0 0 0 0 0 0 0 0 0 0 0 0 0 0 0 0
0 0 0 0 0 0 0 0 0 0 0 0 0 0 0 0 0 0 0 0 0 0 0 0 0 0 0 0 0 0 0 0 0 0 0 0 0 0 0 0 0 0 0
0 0 0 0 0 0 0 0 0 0 0 0 0 0 0 0 0 0 0 0 0 0 0 0 0 0 0 0 0 0 0 0 0 0 0 0 0 0 0 0 0 0 0
0 0 0 0 0 0 0 0 0 0 0 0 0 0 0 0 0 0 0 0 0 0 0 0 0 0 0 0 0 0 0 0 0 0 0 0 0 0 0 0 0 0 0
0 0 0 0 0 0 0 0 0 0 0 0 0 0 0 0 0 0 0 0 0 0 0 0 0 0 0 0 0 0 0 0 0 0 0 0 0 0 0 0 0 0 0
0 0 0 0 0 0 0 0 0 0 0 0 0 0 0 0 0 0 0 0 0 0 0 0 0 0 0 0 0 0 0 0 0 0 0 0 0 0 0 0 0 0 0
0 0 0 0 0 0 0 0 0 0 0 0 0 0 0 0 0 0 0 0 0 0 0 0 0 0 0 0 0 0 0 0 0 0 0 0 0 0 0 0 0 0 0
0 0 0 0 0 0 0 0 0 0 0 0 0 0 0 0 0 0 0 0 0 0 0 0 0 0 0 0 0 0 0 0 0 0 0 0 0 0 0 0 0 0 0
0 0 0 0 0 0 0 0 0 0 0 0 0 0 0 0 0 0 0 0 0 0 0 0 0 0 0 0 0 0 0 0 0 0 0 0 0 0 0 0 0 0 0
0 0 0 0 0 0 0 0 0 0 0 0 0 0 0 0 0 0 0 0 0 0 0 0 0 0 0 0 0 0 0 0 0 0 0 0 0 0 0 0 0 0 0
0 0 0 0 0 0 0 0 0 0 0 0 0 0 0 0 0 0 0 0 0 0 0 0 0 0 0 0 0 0 0 0 0 0 0 0 0 0 0 0 0 0 0
0 0 0 0 0 0 0 0 0 0 0 0 0 0 0 0 0 0 0 0 0 0 0 0 0 0 0 0 0 0 0 0 0 0 0 0 0 0 0 0 0 0 0
0 0 0 0 0 0 0 0 0 0 0 0 0 0 0 0 0 0 0 0 0 0 0 0 0 0 0 0 0 0 0 0 0 0 0 0 0 0 0 0 0 0 0
0 0 0 0 0 0 0 0 0 0 0 0 0 0 0 0 0 0 0 0 0 0 0 0 0 0 0 0 0 0 0 0 0 0 0 0 0 0 0 0 0 0 0
0 0 0 0 0 0 0 0 0 0 0 0 0 0 0 0 0 0 0 0 0 0 0 0 0 0 0 0 0 0 0 0 0 0 0 0 0 0 0 0 0 0 0
0 0 0 0 0 0 0 0 0 0 0 0 0 0 0 0 0 0 0 0 0 0 0 0 0 0 0 0 0 0 0 0 0 0 0 0 0 0 0 0 0 0 0
0 0 0 0 0 0 0 0 0 0 0 0 0 0 0 0 0 0 0 0 0 0 0 0 0 0 0 0 0 0 0 0 0 0 0 0 0 0 0 0 0 0 0
0 0 0 0 0 0 0 0 0 0 0 0 0 0 0 0 0 0 0 0 0 0 0 0 0 0 0 0 0 0 0 0 0 0 0 0 0 0 0 0 0 0 0
0 0 0 0 0 0 0 0 0 0 0 0 0 0 0 0 0 0 0 0 0 0 0 0 0 0 0 0 0 0 0 0 0 0 0 0 0 0 0 0 0 0 0
0 0 0 0 0 0 0 0 0 0 0 0 0 0 0 0 0 0 0 0 0 0 0 0 0 0 0 0 0 0 0 0 0 0 0 0 0 0 0 0 0 0 0
0 0 0 0 0 0 0 0 0 0 0 0 0 0 0 0 0 0 0 0 0 0 0 0 0 0 0 0 0 0 0 0 0 0 0 0 0 0 0 0 0 0 0
Wind_Speed
4 4 3 3 3 2 3 2 2 3 3 3 3 3 4 4 3 3 2 5 6 5 5 5 5 5 5 5 5 5 6 5 5 6 6 6 5 5 5 5 5 6 6
4 4 4 3 3 3 3 3 3 3 3 3 3 3 4 4 3 3 2 4 6 7 6 5 5 5 5 6 5 5 5 5 5 5 5 4 4 4 5 4 4 5 6
5 5 4 4 3 3 3 3 3 3 3 4 4 3 3 3 3 3 3 2 3 5 7 7 6 5 5 4 5 5 5 4 4 4 4 4 4 4 4 5 5 5 5
6 5 5 4 3 3 3 3 3 3 3 3 3 2 2 3 4 3 3 3 2 2 4 7 6 5 5 4 3 4 3 3 3 3 3 3 3 3 4 4 4 5 5
6 5 5 4 4 4 3 3 3 3 3 3 3 3 2 2 3 3 3 3 2 2 2 4 6 5 5 4 2 2 2 2 2 2 2 2 2 3 3 3 4 5 5
6 5 4 5 5 4 3 3 4 3 3 3 4 4 3 2 2 3 2 2 2 2 2 2 2 3 5 5 4 2 1 1 1 1 1 2 2 2 3 3 4 4 5
6 6 5 5 5 4 3 4 4 4 3 3 3 3 3 3 3 2 1 2 2 2 2 2 1 1 2 4 4 3 2 2 2 1 1 2 2 2 3 3 4 5 5
6 6 6 5 5 5 4 4 4 3 2 1 3 3 1 2 3 2 1 1 1 1 2 1 1 1 1 1 3 4 4 3 3 3 2 3 3 3 3 4 4 5 6
6 6 6 5 5 5 5 4 4 4 3 1 1 3 3 2 1 2 2 1 1 1 1 1 1 1 1 1 1 3 4 4 5 4 4 4 4 4 5 5 5 6 6
5 6 6 6 5 4 5 4 3 3 4 2 0 1 1 3 3 0 1 2 2 1 1 1 1 1 1 1 2 3 4 5 5 6 5 5 5 5 5 5 6 7 7
4 5 5 5 5 4 5 4 3 3 3 3 2 1 1 1 2 2 1 1 2 2 1 1 1 1 1 1 1 4 6 5 5 6 6 6 5 6 6 6 6 7 7
3 4 5 4 4 4 5 4 3 4 3 3 2 2 2 2 2 2 2 1 2 2 2 1 1 1 1 1 2 5 5 6 6 7 8 7 6 6 6 6 7 7 8
3 4 4 4 4 4 4 4 3 3 3 3 3 2 2 2 2 2 2 1 1 2 2 1 2 1 1 1 2 5 5 6 7 7 8 8 6 6 7 7 8 8 9
4 4 4 4 4 4 4 3 3 2 2 2 2 2 1 1 1 2 2 2 1 1 2 3 2 2 1 2 3 5 4 7 7 8 9 8 7 7 7 7 8 9 9
4 4 4 4 3 3 4 4 2 2 2 2 2 2 1 1 1 1 2 3 3 3 4 3 2 2 2 2 4 3 3 7 8 8 8 8 7 7 8 8 9 9 10
4 5 5 4 4 3 3 3 3 2 3 2 2 2 1 1 1 1 1 2 2 3 4 3 3 3 2 3 5 4 4 8 9 9 8 8 8 8 8 9 9 10 10
5 5 5 5 4 4 3 3 3 3 3 2 2 2 2 2 1 1 1 2 2 2 3 3 2 2 2 3 4 4 4 4 5 9 9 9 8 8 9 9 10 10 11
5 5 5 5 4 4 4 4 4 4 4 4 3 3 3 2 2 2 2 2 2 2 3 4 3 2 3 4 4 4 4 4 4 8 9 9 9 9 9 10 10 11 11
5 4 5 5 5 4 4 4 4 4 4 4 4 4 3 3 3 2 2 2 2 2 2 3 4 3 3 3 3 4 4 4 4 6 9 9 9 10 10 11 11 11 11
5 5 5 5 4 4 5 4 4 4 4 3 4 4 4 4 4 3 3 3 3 2 2 2 3 3 3 3 2 3 4 3 4 4 7 7 9 10 11 11 11 11 11
5 5 4 4 4 4 4 5 4 4 4 3 3 3 4 5 6 5 3 3 3 3 2 3 3 3 3 2 3 3 4 4 4 3 3 4 4 4 5 8 10 11 11
4 4 4 4 4 4 5 6 4 4 4 4 4 3 3 4 5 7 7 6 6 5 4 4 4 5 5 4 3 3 3 4 5 2 3 5 3 4 4 4 9 12 12
4 3 3 3 4 4 5 5 5 3 4 4 4 4 3 3 4 3 5 6 7 9 9 6 6 6 6 5 4 4 4 4 5 4 3 6 3 4 4 6 11 12 12
3 3 3 4 3 4 5 4 4 3 3 4 4 4 4 4 4 4 3 3 4 5 6 5 6 6 6 5 5 5 5 4 4 3 2 5 4 4 5 4 10 11 11
3 3 3 3 3 4 4 4 4 2 2 3 4 4 4 4 6 6 4 4 4 5 6 7 8 8 9 9 7 3 3 3 5 4 2 3 4 5 5 5 6 9 10
2 2 2 2 3 4 5 5 4 2 2 3 3 3 6 6 7 7 4 4 5 5 4 4 5 6 6 6 8 5 4 4 4 4 2 2 3 3 4 3 3 4 5
Wind_Direction
149 150 145 138 131 122 122 112 104 101 89 82 87 105 104 101 98 89 71 72 73 81 93 102 112 109 114 115 116 109 101 94 84 74 72 66 56 49 41 38 34 31 25
150 150 144 140 135 130 125 121 115 104 94 92 81 85 95 98 96 93 79 67 64 63 69 82 90 97 103 99 102 108 101 92 81 71 67 60 51 43 35 28 24 22 22
149 151 146 143 140 132 122 110 99 94 94 89 79 75 87 90 95 94 88 76 59 55 59 66 70 75 81 94 97 95 99 90 81 70 63 56 46 39 30 25 21 20 16
150 147 142 141 136 125 120 120 115 104 91 87 81 69 76 87 90 92 86 80 70 55 54 57 52 56 61 67 90 94 96 93 80 64 51 43 34 26 22 20 20 18 15
149 148 143 138 129 121 122 130 120 119 109 91 87 72 57 78 88 95 89 84 76 67 52 54 48 43 45 43 46 94 85 71 69 42 31 28 27 24 16 11 11 9 4
143 140 136 132 127 120 117 125 120 104 113 112 92 68 43 54 73 85 96 88 78 68 57 52 37 26 30 27 18 22 48 15 29 11 360 12 11 4 353 355 355 347 343
145 138 137 133 133 129 131 133 125 113 97 105 91 65 29 34 52 56 74 85 75 67 65 56 45 25 360 6 359 6 356 345 327 321 334 334 330 329 328 334 335 333 330
148 142 142 143 140 129 126 131 127 120 110 103 116 111 72 7 8 15 36 75 72 60 63 60 60 32 348 332 342 354 345 322 305 282 280 288 295 301 306 314 315 319 322
142 140 141 140 141 139 147 148 140 136 143 126 103 134 142 185 269 336 4 33 55 51 30 25 32 11 352 324 305 324 333 326 315 298 283 284 287 289 296 300 302 308 315
139 139 140 140 144 142 147 157 147 141 141 150 117 53 130 150 150 185 335 0 10 10 343 355 1 352 354 340 325 328 326 312 310 310 294 289 288 290 296 303 305 306 309
137 142 144 145 147 146 153 156 148 143 145 153 159 144 101 73 114 145 217 289 334 311 297 289 282 288 314 323 322 323 322 312 304 309 300 289 291 297 302 308 312 313 313
137 143 144 146 151 153 160 161 154 153 157 154 161 162 159 160 170 152 185 231 266 283 298 279 265 269 284 300 313 324 323 319 314 312 308 295 294 299 304 306 308 312 313
147 157 149 151 154 158 158 151 151 162 163 164 173 182 179 188 166 155 159 200 248 284 302 295 267 263 278 295 306 316 316 315 315 315 313 307 307 305 302 302 305 307 308
156 154 147 148 149 152 155 150 149 162 158 167 173 171 172 198 173 172 168 166 231 276 267 270 291 260 273 287 295 312 310 309 309 311 315 312 307 306 303 301 302 305 305
145 146 146 148 147 152 155 149 151 160 157 171 175 172 178 212 189 187 178 179 182 232 255 244 258 272 275 286 293 297 294 300 302 303 306 305 298 298 298 298 298 300 299
149 151 153 157 157 158 158 151 152 157 157 169 164 162 180 208 195 194 198 208 206 213 248 236 244 273 284 286 290 289 283 297 297 296 297 295 292 293 293 293 294 294 294
156 162 165 167 169 168 165 162 168 166 169 176 179 181 200 196 193 218 212 205 217 210 245 272 263 279 275 282 293 290 283 283 286 287 290 289 285 286 289 290 292 292 293
162 167 167 170 176 176 177 178 183 185 186 190 198 197 213 208 208 224 219 219 226 220 225 261 279 280 273 272 275 282 286 285 283 289 289 287 283 283 286 288 289 290 291
164 169 171 178 183 184 186 190 191 193 199 203 202 204 214 207 224 234 233 234 240 242 231 244 272 280 282 281 287 287 284 286 287 290 288 287 286 284 286 288 287 288 288
170 177 182 186 188 189 190 191 190 194 201 211 213 213 215 215 220 222 232 229 227 236 238 247 268 280 282 282 274 284 293 288 288 293 285 287 290 290 287 287 288 288 288
176 179 180 187 190 192 196 192 191 193 197 208 221 225 226 228 231 231 236 226 212 223 237 250 263 278 280 282 273 271 283 293 287 276 280 285 287 285 286 285 288 288 286
171 173 185 190 200 210 210 209 204 195 199 206 221 234 236 236 239 249 254 251 235 228 230 239 254 258 267 265 270 272 281 293 291 275 275 286 280 281 282 271 281 288 289
170 179 194 195 207 217 217 217 219 207 202 212 219 225 242 244 253 240 256 266 262 256 246 238 241 250 257 253 255 269 265 265 271 279 286 287 283 280 279 283 289 289 289
175 186 198 203 206 219 220 224 229 218 210 221 223 221 224 237 236 240 239 254 262 263 256 249 239 245 247 246 240 249 255 266 271 269 250 276 285 281 286 280 283 283 286
177 190 196 198 204 223 225 231 238 208 219 234 235 229 226 231 245 257 253 253 268 273 272 262 259 261 264 266 263 256 255 270 283 280 234 247 279 293 285 274 274 281 286
181 185 207 213 210 221 233 238 239 206 222 245 252 244 244 246 252 256 248 238 256 267 266 274 271 274 270 263 262 244 229 249 274 278 236 236 275 301 296 274 270 279 285